When you browse on this site, cookies collect data to enhance your experience and personalize the content and advertising you see.
Visit our Privacy Policy to learn more. By continuing to use the site, you agree to this use of cookies and data.

Hourly Weather Hobart

Today, 11 August, Tuesday

Time Temperature Precipitation Wind Pressure Humidity
00:00 +2°C° 0 mm 2 mps 751 mmHg 90%
01:00 +2°C° 0 mm 2 mps 751 mmHg 89%
02:00 +2°C° 0 mm 2 mps 750 mmHg 90%
03:00 +2°C° 0 mm 2 mps 750 mmHg 90%
04:00 +1°C° 0 mm 2 mps 750 mmHg 91%
05:00 +1°C° 0 mm 2 mps 750 mmHg 90%
06:00 +1°C° 0 mm 2 mps 750 mmHg 90%
07:00 +1°C° 0 mm 2 mps 749 mmHg 90%
08:00 +4°C° 0 mm 1 mps 749 mmHg 78%
09:00 +7°C° 0 mm 1 mps 749 mmHg 66%
10:00 +9°C° 0 mm 1 mps 749 mmHg 54%
11:00 +11°C° 0 mm 1 mps 748 mmHg 49%
12:00 +12°C° 0 mm 1 mps 748 mmHg 43%
13:00 +13°C° 0 mm 0 mps 747 mmHg 38%
14:00 +13°C° 0 mm 1 mps 747 mmHg 44%
15:00 +12°C° 0 mm 1 mps 746 mmHg 51%
16:00 +11°C° 0 mm 1 mps 746 mmHg 57%
17:00 +10°C° 0 mm 1 mps 746 mmHg 63%
18:00 +7°C° 0 mm 0 mps 746 mmHg 69%
19:00 +6°C° 0 mm 0 mps 746 mmHg 75%
20:00 +6°C° 0 mm 1 mps 746 mmHg 75%
21:00 +6°C° 0 mm 1 mps 746 mmHg 76%
22:00 +6°C° 0 mm 1 mps 746 mmHg 77%
23:00 +6°C° 0 mm 1 mps 746 mmHg 80%

Tomorrow, 12 August, Wednesday

Time Temperature Precipitation Wind Pressure Humidity
00:00 +5°C° 0 mm 2 mps 745 mmHg 82%
01:00 +5°C° 0 mm 2 mps 745 mmHg 84%
02:00 +5°C° 0 mm 2 mps 745 mmHg 84%
03:00 +4°C° 0 mm 2 mps 744 mmHg 85%
04:00 +4°C° 0 mm 2 mps 744 mmHg 85%
05:00 +5°C° 0 mm 2 mps 744 mmHg 86%
06:00 +6°C° 0 mm 2 mps 744 mmHg 86%
07:00 +6°C° 0 mm 2 mps 743 mmHg 87%
08:00 +7°C° 0 mm 2 mps 743 mmHg 83%
09:00 +8°C° 0 mm 2 mps 743 mmHg 80%
10:00 +10°C° 0 mm 3 mps 743 mmHg 76%
11:00 +12°C° 0 mm 2 mps 743 mmHg 72%
12:00 +13°C° 0 mm 2 mps 742 mmHg 68%
13:00 +14°C° 0 mm 2 mps 742 mmHg 64%
14:00 +13°C° 0.1 mm 2 mps 741 mmHg 69%
15:00 +12°C° 0.1 mm 1 mps 741 mmHg 75%
16:00 +12°C° 0.1 mm 1 mps 741 mmHg 81%
17:00 +11°C° 0 mm 1 mps 741 mmHg 85%
18:00 +10°C° 0 mm 1 mps 742 mmHg 88%
19:00 +9°C° 0 mm 1 mps 742 mmHg 92%
20:00 +8°C° 0 mm 1 mps 742 mmHg 93%
21:00 +8°C° 0 mm 1 mps 742 mmHg 93%
22:00 +7°C° 0 mm 1 mps 743 mmHg 94%
23:00 +7°C° 0 mm 1 mps 743 mmHg 94%

Day after tomorrow, 13 August, Thursday

Time Temperature Precipitation Wind Pressure Humidity
00:00 +7°C° 0 mm 1 mps 743 mmHg 94%
01:00 +7°C° 0 mm 1 mps 743 mmHg 94%
02:00 +7°C° 0 mm 1 mps 743 mmHg 94%
03:00 +7°C° 0 mm 1 mps 743 mmHg 94%
04:00 +7°C° 0 mm 1 mps 743 mmHg 94%
05:00 +7°C° 0 mm 1 mps 743 mmHg 93%
06:00 +7°C° 0 mm 1 mps 743 mmHg 93%
07:00 +7°C° 0 mm 1 mps 744 mmHg 93%
08:00 +7°C° 0 mm 0 mps 744 mmHg 90%
09:00 +8°C° 0 mm 0 mps 744 mmHg 88%
10:00 +9°C° 0 mm 0 mps 744 mmHg 86%
11:00 +10°C° 0.1 mm 0 mps 744 mmHg 87%
12:00 +11°C° 0.1 mm 1 mps 744 mmHg 87%
13:00 +11°C° 0.1 mm 1 mps 744 mmHg 88%
14:00 +11°C° 0.6 mm 1 mps 744 mmHg 91%
15:00 +11°C° 0.6 mm 1 mps 744 mmHg 94%
16:00 +11°C° 0.6 mm 1 mps 744 mmHg 96%
17:00 +11°C° 0.1 mm 1 mps 744 mmHg 97%
18:00 +10°C° 0.1 mm 1 mps 745 mmHg 97%
19:00 +10°C° 0.1 mm 1 mps 745 mmHg 98%
20:00 +10°C° 0.2 mm 1 mps 745 mmHg 97%
21:00 +10°C° 0.2 mm 1 mps 746 mmHg 97%
22:00 +8°C° 0.2 mm 0 mps 746 mmHg 97%
23:00 +9°C° 0 mm 1 mps 746 mmHg 96%

14 August, Friday

Time Temperature Precipitation Wind Pressure Humidity
00:00 +9°C° 0 mm 1 mps 746 mmHg 96%
01:00 +9°C° 0 mm 1 mps 746 mmHg 96%
02:00 +9°C° 0 mm 1 mps 745 mmHg 96%
03:00 +8°C° 0 mm 1 mps 745 mmHg 96%
04:00 +8°C° 0 mm 1 mps 745 mmHg 96%
05:00 +9°C° 0.1 mm 1 mps 745 mmHg 96%
06:00 +9°C° 0.1 mm 1 mps 746 mmHg 95%
07:00 +9°C° 0.1 mm 1 mps 746 mmHg 95%
08:00 +10°C° 0.1 mm 1 mps 746 mmHg 93%
09:00 +11°C° 0.1 mm 1 mps 746 mmHg 91%
10:00 +12°C° 0.1 mm 1 mps 746 mmHg 90%
11:00 +13°C° 0.1 mm 1 mps 746 mmHg 86%
12:00 +14°C° 0.1 mm 1 mps 746 mmHg 83%
13:00 +15°C° 0.1 mm 1 mps 746 mmHg 79%
14:00 +14°C° 0.7 mm 1 mps 746 mmHg 84%
15:00 +13°C° 0.7 mm 1 mps 746 mmHg 88%
16:00 +12°C° 0.7 mm 2 mps 746 mmHg 93%
17:00 +12°C° 0.8 mm 2 mps 746 mmHg 94%
18:00 +10°C° 0.8 mm 2 mps 746 mmHg 95%
19:00 +10°C° 0.8 mm 2 mps 746 mmHg 96%
20:00 +10°C° 0.3 mm 2 mps 747 mmHg 96%
21:00 +11°C° 0.3 mm 1 mps 747 mmHg 96%
22:00 +10°C° 0.3 mm 1 mps 747 mmHg 96%
23:00 +10°C° 0.4 mm 1 mps 747 mmHg 97%

15 August, Saturday

Time Temperature Precipitation Wind Pressure Humidity
00:00 +10°C° 0.4 mm 1 mps 747 mmHg 97%
01:00 +10°C° 0.4 mm 1 mps 746 mmHg 98%
02:00 +10°C° 0.3 mm 1 mps 746 mmHg 98%
03:00 +10°C° 0.3 mm 1 mps 746 mmHg 98%
04:00 +10°C° 0.3 mm 1 mps 746 mmHg 98%
05:00 +10°C° 0.1 mm 1 mps 746 mmHg 97%
06:00 +9°C° 0.1 mm 0 mps 746 mmHg 97%
07:00 +9°C° 0.1 mm 0 mps 746 mmHg 97%
08:00 +10°C° 0 mm 0 mps 746 mmHg 95%
09:00 +11°C° 0 mm 0 mps 746 mmHg 93%
10:00 +11°C° 0 mm 0 mps 746 mmHg 91%
11:00 +12°C° 0.2 mm 0 mps 746 mmHg 87%
12:00 +13°C° 0.2 mm 0 mps 745 mmHg 83%
13:00 +14°C° 0.2 mm 0 mps 745 mmHg 79%
14:00 +14°C° 0.3 mm 1 mps 744 mmHg 81%
15:00 +14°C° 0.3 mm 1 mps 744 mmHg 84%
16:00 +14°C° 0.3 mm 1 mps 744 mmHg 86%
17:00 +12°C° 0.1 mm 1 mps 744 mmHg 90%
18:00 +11°C° 0.1 mm 1 mps 745 mmHg 93%
19:00 +9°C° 0.1 mm 0 mps 745 mmHg 97%
20:00 +9°C° 0.1 mm 0 mps 745 mmHg 97%
21:00 +9°C° 0.1 mm 0 mps 745 mmHg 97%
22:00 +8°C° 0.1 mm 0 mps 745 mmHg 97%
23:00 +8°C° 0 mm 0 mps 745 mmHg 97%

16 August, Sunday

Time Temperature Precipitation Wind Pressure Humidity
00:00 +9°C° 0 mm 1 mps 745 mmHg 97%
01:00 +9°C° 0 mm 1 mps 745 mmHg 97%
02:00 +9°C° 0 mm 1 mps 744 mmHg 97%
03:00 +9°C° 0 mm 1 mps 744 mmHg 97%
04:00 +8°C° 0 mm 2 mps 744 mmHg 97%
05:00 +8°C° 0.1 mm 2 mps 744 mmHg 97%
06:00 +8°C° 0.1 mm 2 mps 744 mmHg 97%
07:00 +8°C° 0.1 mm 2 mps 744 mmHg 97%
08:00 +9°C° 0 mm 2 mps 744 mmHg 94%
09:00 +10°C° 0 mm 2 mps 744 mmHg 90%
10:00 +12°C° 0 mm 1 mps 744 mmHg 87%
11:00 +13°C° 0.1 mm 1 mps 744 mmHg 82%
12:00 +14°C° 0.1 mm 1 mps 744 mmHg 77%
13:00 +15°C° 0.1 mm 1 mps 743 mmHg 72%
14:00 +14°C° 0.4 mm 1 mps 743 mmHg 78%
15:00 +13°C° 0.4 mm 2 mps 743 mmHg 84%
16:00 +12°C° 0.4 mm 2 mps 743 mmHg 90%
17:00 +12°C° 0.4 mm 2 mps 743 mmHg 92%
18:00 +10°C° 0.4 mm 2 mps 743 mmHg 95%
19:00 +10°C° 0.4 mm 2 mps 744 mmHg 97%
20:00 +10°C° 0.5 mm 2 mps 744 mmHg 97%
21:00 +10°C° 0.5 mm 2 mps 744 mmHg 97%
22:00 +10°C° 0.5 mm 2 mps 743 mmHg 97%
23:00 +10°C° 1 mm 3 mps 743 mmHg 97%
Show more